Weather History for Houghton, MI

Change the Weather History Date:

Monday, March 26, 2012

  Actual Average Record
Temperature  
Mean Temperature 27 °F -  
Max Temperature 33 °F 35 °F 59 °F (2007)
Min Temperature 21 °F 20 °F -8 °F (1965)
Degree Days  
Heating Degree Days 38    
Moisture  
Dew Point 20 °F    
Average Humidity 74    
Maximum Humidity 82    
Minimum Humidity 66    
Precipitation  
Precipitation 0.00 in - - ()
Sea Level Pressure  
Sea Level Pressure 30.43 in    
Wind  
Wind Speed 9 mph (East)    
Max Wind Speed 18 mph    
Max Gust Speed 25 mph    
Visibility 10 miles    
Events      
Averages and records for this station are not official NWS values.
T = Trace of Precipitation, MM = Missing Value Source: NWS Daily Summary

Daily Weather History Graph

Daily Weather History Graph

Search for Another Location

Airport:

Trip Planner

Search our weather history database for the weather conditions in past years. The results will help you decide how hot, cold, wet, or windy it might be!

Date:

Astronomy

Mar. 26, 2012 Rise Set
Actual Time 7:43 AM EDT 8:15 PM EDT
Civil Twilight 7:13 AM EDT 8:46 PM EDT
Nautical Twilight 6:36 AM EDT 9:22 PM EDT
Astronomical Twilight 5:59 AM EDT 10:00 PM EDT
Moon 9:15 AM EDT (3/26) No Moon Set
Length of Visible Light 13h 33m
Length of Day
12h 31m
Waxing Crescent, 14% of the Moon is Illuminated
Mar 26
Waxing Crescent
Mar 30
First Quarter
Apr 6
Full
Apr 13
Last Quarter
Apr 21
New

Hourly Weather History & Observations

Time (EDT) Temp. Windchill Dew Point Humidity Pressure Visibility Wind Dir Wind Speed Gust Speed Precip Events Conditions
12:53 AM 25.0 °F 16.3 °F 16.0 °F 69% 30.41 in 10.0 mi NNE 8.1 mph - N/A   Clear
1:53 AM 25.0 °F 18.1 °F 16.0 °F 69% 30.43 in 10.0 mi NE 5.8 mph - N/A   Clear
2:53 AM 23.0 °F 18.4 °F 16.0 °F 74% 30.44 in 10.0 mi NNE 3.5 mph - N/A   Clear
3:53 AM 21.9 °F 15.7 °F 16.0 °F 78% 30.45 in 10.0 mi NE 4.6 mph - N/A   Clear
4:53 AM 21.9 °F 17.2 °F 16.0 °F 78% 30.46 in 10.0 mi NE 3.5 mph - N/A   Clear
5:53 AM 21.0 °F 16.2 °F 16.0 °F 81% 30.48 in 10.0 mi ENE 3.5 mph - N/A   Clear
6:53 AM 21.9 °F 17.2 °F 15.1 °F 75% 30.49 in 10.0 mi ENE 3.5 mph - N/A   Clear
7:53 AM 21.9 °F 13.4 °F 16.0 °F 78% 30.51 in 10.0 mi ENE 6.9 mph - N/A   Clear
8:53 AM 24.1 °F 14.4 °F 18.0 °F 77% 30.51 in 10.0 mi ENE 9.2 mph - N/A   Clear
9:53 AM 25.0 °F 15.5 °F 18.0 °F 75% 30.52 in 10.0 mi East 9.2 mph - N/A   Mostly Cloudy
10:53 AM 27.0 °F 18.0 °F 19.0 °F 72% 30.53 in 10.0 mi East 9.2 mph - N/A   Mostly Cloudy
11:26 AM 28.4 °F 18.0 °F 19.4 °F 69% 30.47 in 10.0 mi ESE 12.7 mph - N/A   Scattered Clouds
11:53 AM 28.0 °F 18.1 °F 19.0 °F 69% 30.53 in 10.0 mi East 11.5 mph - N/A   Scattered Clouds
12:53 PM 28.9 °F 19.2 °F 21.0 °F 72% 30.51 in 10.0 mi East 11.5 mph - N/A   Clear
1:53 PM 30.9 °F 21.7 °F 21.0 °F 67% 30.50 in 10.0 mi ESE 11.5 mph - N/A   Clear
2:53 PM 32.0 °F 22.5 °F 21.9 °F 66% 30.47 in 10.0 mi East 12.7 mph - N/A   Clear
3:53 PM 33.1 °F 23.9 °F 23.0 °F 66% 30.45 in 10.0 mi ESE 12.7 mph - N/A   Clear
4:53 PM 30.9 °F 20.2 °F 21.9 °F 69% 30.42 in 10.0 mi East 15.0 mph - N/A   Clear
5:53 PM 30.9 °F 21.2 °F 21.9 °F 69% 30.40 in 10.0 mi ESE 12.7 mph 19.6 mph N/A   Clear
6:53 PM 30.0 °F 19.1 °F 21.9 °F 72% 30.36 in 10.0 mi East 15.0 mph 23.0 mph N/A   Clear
7:53 PM 28.0 °F 15.3 °F 21.9 °F 78% 30.35 in 10.0 mi East 18.4 mph 25.3 mph N/A   Clear
8:53 PM 28.0 °F 16.5 °F 23.0 °F 81% 30.32 in 10.0 mi East 15.0 mph 23.0 mph N/A   Clear
9:53 PM 28.9 °F 18.2 °F 23.0 °F 78% 30.31 in 10.0 mi East 13.8 mph - N/A   Clear
10:53 PM 28.9 °F 19.8 °F 24.1 °F 82% 30.29 in 10.0 mi East 10.4 mph - N/A   Clear
11:53 PM 30.0 °F 20.5 °F 24.1 °F 79% 30.25 in 10.0 mi East 11.5 mph - N/A   Partly Cloudy